[Date Prev][Date Next][Thread Prev][Thread Next][Date Index][Thread Index]

[jamsat-news:1125] jas2info #151



========================   ºÇ¿·¾ðÊó   ==============================

        Last updated ¡§Thu.22-Jul.-1999 20:00 (JST) #151

====================================================================
   
     ±ÒÀ±¾ðÊ󡡣ƣϥ·¥ê¡¼¥º¤Îµ°Æ»Í×ÁÇ¡¢¥Æ¥ì¥á¥È¥ê¡¢£Ñ£Ó£Ï¤Î¾õ¶·Åù¤ò
   ¤Þ¤È¤á¤Æ¤ß¤Þ¤·¤¿¡¥

  1¡Ë  £Æ£Ï¡Ý£²£¹¡Ê¤Õ¤¸£³¹æ¡Ë¤Ï¡¢£··î£²£²Æü¡ÊÌÚ¡Ë£±£²¡§£°£³¡Ê£Ê£Ó£Ô¡Ë¤Î
     ¥Ñ¥¹¤ÏJARL¤Î¥Û¥à¥Ú¡¼¥¸¤Î¡Ö¤Õ¤¸£³¹æ¡×¤Î¥¹¥±¥¸¥å¡¼¥ë¤Î¤È¤¦¤ê£ÊD
¡¡¡¡¥Ç¥£¥¸¥¿¥ë¥â¡¼¥É¤Ç±¿ÍѤµ¤ì¤Æ¤¤¤Þ¤·¤¿. 
       
 ¢£ µ°Æ»Í×ÁÇ£±¡§¡Öjamsat¡Ýkeps¡§£¹£°£³¡×¤è¤ê¡¡
              SB KEPS @ AMSAT  $ORB99197.N
¡¡¡¡¡¡¡¡¡¡¡¡¡¡2Line Orbital Elements 99197.AMSAT

¡¡HR AMSAT ORBITAL ELEMENTS FOR AMATEUR SATELLITES IN NASA FORMAT
¡¡FROM WA5QGD FORT WORTH,TX July 16, 1999
¡¡SEND SUBSCRIBE/UNSUBSCRIBE TO majordomo@amsat.org ONLY
¡¡BID: ORB99197.N
¡¡¡¡
 DECODE 2-LINE ELSETS WITH THE FOLLOWING KEY:
 1 AAAAAU 00  0  0 BBBBB.BBBBBBBB  .CCCCCCCC  00000-0  00000-0 0  DDDZ
 2 AAAAA EEE.EEEE FFF.FFFF GGGGGGG HHH.HHHH III.IIII JJ.JJJJJJJJKKKKKZ
 KEY: A-CATALOGNUM B-EPOCHTIME C-DECAY D-ELSETNUM E-INCLINATION F-RAAN
 G-ECCENTRICITY H-ARGPERIGEE I-MNANOM J-MNMOTION K-ORBITNUM Z-CHECKSUM

 TO ALL RADIO AMATEURS BT

 ¡¡FO-29
¡¡1 24278U 96046B   99196.39208764  .00000078  00000-0  11578-3 0  2590
¡¡2 24278  98.5647 143.7746 0351941  21.2427 340.2945 13.52674388143627

 ¢£ µ°Æ»Í×ÁÇ£²¡§¡Öjamsat¡Ýkeps¡§£¹£°£´¡×¤è¤ê                         
¡¡¡¡¡¡¡¡¡¡¡¡¡¡¡¡¡¡SB KEPS @ AMSAT  $ORB99197.O
¡¡¡¡¡¡¡¡¡¡¡¡¡¡¡¡¡¡Orbital Elements  99197.OSCAR

¡¡HR AMSAT ORBITAL ELEMENTS FOR OSCAR SATELLITES
¡¡FROM WA5QGD FORT WORTH,TX July 16, 1999
¡¡SEND SUBSCRIBE/UNSUBSCRIBE TO majordomo@amsat.org ONLY
¡¡BID: ORB99197.O
¡¡TO ALL RADIO AMATEURS BT
¡¡
  Satellite: FO-29
¡¡Catalog number: 24278
¡¡Epoch time:      99196.39208764
¡¡Element set:     259
¡¡Inclination:       98.5647 deg
¡¡RA of node:       143.7746 deg
¡¡Eccentricity:    0.0351941
¡¡Arg of perigee:    21.2427 deg
¡¡Mean anomaly:     340.2945 deg
¡¡Mean motion:   13.52674388 rev/day
¡¡Decay rate:        7.8e-07 rev/day^2
¡¡Epoch rev:           14362
¡¡Checksum:              351
¡¡
 -----------------------------------------------------------
  £²)£Æ£Ï¡Ý£²£¹¡Ê¤Õ¤¸£³¹æ¡Ë¤Î £··î£²£²Æü¡ÊÌڡˤΣ±£²¡§£°£³¤Î¥Ñ¥¹¤Ç¤Ï
¡¡¡¡£Ê£Ä¥Ç¥£¥¸¥¿¥ë¥â¡¼¥É¤Ç±¿ÍѤµ¤ì¡¢¤½¤ì¤Þ¤Ç¤Î¼èÆÀ¤·¤¿¥Æ¥ì¥á¥È¥ê¥Ç¡¼¥¿¤Î
¡¡¡¡°ìÉôʬ¤Ç¤¹.

¡¡¡¡AS14456P¡¡22Jul99

¡¡8J1JCS>BEACON [07/22/99  15:33:44]:
¡¡JAS-2    '97/07/22 06:33:47
¡¡9C 03 03 08 00 73 00 00 00 00
¡¡00 00 85 55 A2 83 47 96 93 A0
¡¡AA 52 A8 01 CF BC C1 BD BC C1
         
¡¡8J1JCS>BEACON [07/22/99  15:33:45]:D5 02 00 09 00 80 A5 40 00 00
¡¡1F 64 46 40 0F 66 68 85 8A 8A
¡¡00 00 00 B3 83 B3 F7 00 00 00
                                      
¡¡8J1JCS>BEACON [07/22/99  15:35:44]:
¡¡JAS-2    '97/07/22 06:35:47
¡¡9C 03 03 08 00 73 00 00 00 00
¡¡00 00 85 55 DE 97 3E 97 93 A1
¡¡AA 52 A8 02 B6 BC C1 BD BC C1
         
¡¡8J1JCS>BEACON [07/22/99  15:35:45]:D5 02 00 09 00 80 A5 40 00 00
¡¡BD 62 37 62 01 35 37 85 8B 88
¡¡00 00 00 B2 83 B3 F7 00 00 00
                                      
¡¡8J1JCS>BEACON [07/22/99  15:35:46]:
¡¡User not connect.
                                                     
¡¡8J1JCS>BEACON [07/22/99  15:37:44]:
¡¡JAS-2    '97/07/22 06:37:47
¡¡9C 03 03 08 00 73 00 00 00 00
¡¡00 00 85 56 1A 9B 3C 98 94 A2
¡¡AA 52 A8 02 8B BC C1 BD BC C0
         
¡¡8J1JCS>BEACON [07/22/99  15:37:45]:D5 02 00 09 00 80 A5 40 00 00
¡¡BD 62 31 71 01 2C 2D 84 8C 88
¡¡00 00 00 B1 83 B3 F7 00 00 00
                                      
¡¡8J1JCS>BEACON [07/22/99  15:37:46]:
¡¡User not connect.
                                                     
¡¡8J1JCS>BEACON [07/22/99  15:39:44]:
¡¡JAS-2    '97/07/22 06:39:47
¡¡9C 03 03 08 00 73 00 00 00 00
¡¡00 00 85 56 56 92 40 95 92 9F
¡¡AA 52 A8 02 CE BC C0 BC BB C0
         
¡¡8J1JCS>BEACON [07/22/99  15:39:45]:D5 02 00 09 00 80 A5 40 00 00
¡¡BD 62 29 7F 01 34 35 84 8B 86
¡¡00 00 00 B0 83 B3 F7 00 00 00
                                      
¡¡8J1JCS>BEACON [07/22/99  15:39:46]:
¡¡User not connect.
                                                     
¡¡8J1JCS>BEACON [07/22/99  15:41:44]:
¡¡JAS-2    '97/07/22 06:41:47
¡¡9C 03 63 08 00 73 00 00 00 00
¡¡00 00 85 56 92 86 60 93 90 B0
¡¡AA 52 A8 02 E4 BC C0 BC BB C0
         
¡¡8J1JCS>BEACON [07/22/99  15:41:45]:D5 02 00 09 00 80 A5 40 00 00
¡¡BD 62 25 7E 01 2F 31 84 8B 86
¡¡00 00 00 B0 83 B3 F7 00 00 00
                                      
¡¡8J1JCS>BEACON [07/22/99  15:41:46]:
¡¡User not connect.

¡¡¡¡AS14455P  22Jul99

¡¡8J1JCS>BEACON [07/22/99  13:47:46]:
¡¡JAS-2    '97/07/22 04:47:47
¡¡9C 03 63 08 00 73 00 00 00 00
¡¡00 00 85 49 36 91 60 95 92 B0
¡¡AA 52 A8 02 C8 BD BF C3 BF BC
         
8J1JCS>BEACON [07/22/99  13:47:47]:95 02 00 09 00 00 A1 40 00 00
¡¡C2 46 42 49 04 37 39 78 8A 7C
¡¡00 00 00 B4 78 B3 F7 00 00 00
                                      
¡¡8J1JCS>BEACON [07/22/99  13:47:48]:
¡¡User not connect.

¡¡8J1JCS>JJ1ZUT [07/22/99  13:48:59]:
¡¡FO-29/JAS-2 Mailbox ver 1.01
¡¡You can use Mailbox for 10 minutes.
¡¡commands [B/F/H/K/M/Q/R/U/W/Y]
¡¡Use H command for Help
¡¡JAS2>   
¡¡8J1JCS>JJ1ZUT [07/22/99  13:49:33]:
¡¡Mail not found.

¡¡8J1JCS>BEACON [07/22/99  13:49:42]:
¡¡JAS-2    '97/07/22 04:49:47
¡¡9C 03 63 08 01 73 00 01 00 00
¡¡00 00 85 49 72 7B 60 94 91 B0
¡¡AB 52 A8 02 C8 BD BF C2 BE BB
         
¡¡8J1JCS>BEACON [07/22/99  13:49:43]:D5 02 00 09 00 00 A1 40 00 00
¡¡F1 7A 35 58 1A 4E 51 78 8B 7D
¡¡00 00 00 B4 78 B3 F7 00 00 00
                                      
¡¡8J1JCS>BEACON [07/22/99  13:49:45]:
¡¡User not connect.
¡¡
¡¡8J1JCS>JJ1ZUT [07/22/99  13:50:14]:
¡¡Mail not found.
¡¡8J1JCS>JJ1ZUT [07/22/99  13:50:31]:
 ¡¡ ------ JAS-2 Mailbox Availlable commands ------

¡¡B        : List file headers addressed to ALL
¡¡F        : List file headers f
¡¡8J1JCS>JJ1ZUT [07/22/99  13:50:32]:rom latest
¡¡F<MM/DD> : List file headers since posted day<MM/DD>
¡¡H        : Show help message
¡¡K<nnnn>  : Kill a file number<nnnn>
¡¡8J1JCS>JJ1ZUT [07/22/99  13:50:33]:
¡¡M        : List file headers addressed to current user
¡¡Q        : Disconnect(quit) JAS-2 mailbox
¡¡R<nnnn>+ : Read a file number<
¡¡8J1JCS>JJ1ZUT [07/22/99  13:50:35]:nnnn>+
¡¡U        : List current user(s)
¡¡Y        : More display
¡¡W        : Write a file

¡¡8J1JCS>BEACON [07/22/99  13:53:42]:
¡¡JAS-2    '97/07/22 04:53:47
¡¡9C 03 63 08 00 73 00 00 00 00
¡¡00 00 85 49 EA 89 60 93 91 B0
¡¡AB 51 A8 02 C9 BD BE C2 BE BB
         
¡¡8J1JCS>BEACON [07/22/99  13:53:44]:95 02 00 09 00 00 A1 40 00 00
¡¡DE 75 1C 77 2B 8F 93 7A 8D 81
¡¡00 00 00 B3 7A B3 F7 00 00 00
                                      
¡¡8J1JCS>BEACON [07/22/99  13:53:45]:
¡¡User not connect.
¡¡8J1JCS>BEACON [07/22/99  13:55:42]:
¡¡JAS-2    '97/07/22 04:55:47
¡¡9C 03 63 08 00 73 00 00 00 00
¡¡00 00 85 4A 26 8D 60 94 91 B0
¡¡AA 52 A8 02 C9 BD BE C1 BD BB
         
¡¡8J1JCS>BEACON [07/22/99  13:55:44]:95 02 00 09 00 00 A1 40 00 00
¡¡E6 71 1B 74 20 96 9A 7D 8C 83
¡¡00 00 00 B2 7B B3 F7 00 00 00
                                      
¡¡8J1JCS>BEACON [07/22/99  13:55:45]:
¡¡User not connect.
¡¡8J1JCS>BEACON [07/22/99  13:57:43]:
¡¡JAS-2    '97/07/22 04:57:47
¡¡9C 03 63 08 00 73 00 00 00 00
¡¡00 00 85 4A 62 8C 60 94 91 B0
¡¡AA 52 A8 02 E3 BD BD C0 BD BB
         
¡¡8J1JCS>BEACON [07/22/99  13:57:44]:95 02 00 09 00 00 A1 40 00 00
¡¡4B 70 14 63 66 9D A1 7E 8C 84
¡¡00 00 00 B2 7B B3 F7 00 00 00
                                      
¡¡8J1JCS>BEACON [07/22/99  13:57:45]:
¡¡User not connect.
                                                     
¡¡8J1JCS>BEACON [07/22/99  13:59:43]:
¡¡JAS-2    '97/07/22 04:59:47
¡¡9C 03 63 08 00 73 00 00 00 00
¡¡00 00 85 4A 9E 8A 60 93 90 B0
¡¡AA 52 A8 02 C9 BD BD C0 BD BA
         
¡¡8J1JCS>BEACON [07/22/99  13:59:44]:95 02 00 09 00 00 A1 40 00 00
¡¡2C 6E 0F 55 6E 9D A1 80 8B 85
¡¡00 00 00 B1 7D B3 F7 00 00 00
                                      
¡¡8J1JCS>BEACON [07/22/99  13:59:45]:
¡¡User not connect.
                                                     
¡¡¡¡AS1A4454P  22Jul99

¡¡8J1JCS>BEACON [07/22/99  12:09:39]:
¡¡JAS-2    '97/07/22 03:09:47
¡¡9C 03 03 08 00 73 00 00 00 00
¡¡00 00 85 3D BA 8C 42 96 92 A0
¡¡AA 51 A8 01 CE BD C0 BB BC C0
         
¡¡8J1JCS>BEACON [07/22/99  12:09:40]:95 02 00 09 00 00 9B 40 00 00
¡¡21 63 29 68 0D 26 28 83 8A 84
¡¡00 00 00 B4 81 B3 F7 00 00 00
                                      
¡¡8J1JCS>BEACON [07/22/99  12:09:41]:
¡¡User not connect.

¡¡8J1JCS>BEACON [07/22/99  12:11:43]:
¡¡JAS-2    '97/07/22 03:11:47
¡¡9C 03 63 08 00 73 00 00 00 00
¡¡00 00 85 3D F6 87 60 95 92 B0
¡¡AA 52 A8 01 C8 BD C0 BC BC C0
         
¡¡8J1JCS>BEACON [07/22/99  12:11:44]:95 02 00 09 00 00 9B 40 00 00
¡¡21 63 27 62 0D 27 28 84 8A 83
¡¡00 00 00 B3 82 B3 F7 00 00 00
                                      
¡¡8J1JCS>BEACON [07/22/99  12:11:46]:
¡¡User not connect.

